| time (UTC) | temp C | wind direction | speed KPH | gust KPH | rain 1hr cm | rain 24hr cm | rain mn cm | humidity % | barometer mb |
| 20260508040010 | 3 | 276 | 0.0 | 4.8 | 0.00 | 0.23 | 0.00 | 100 | 1006.5 |
| 20260508034509 | 2 | 276 | 0.0 | 6.4 | 0.00 | 0.23 | 0.23 | 100 | 1006.4 |
| 20260508033008 | 2 | 276 | 1.6 | 8.0 | 0.00 | 0.23 | 0.23 | 100 | 1006.4 |
| 20260508031603 | 2 | 275 | 3.2 | 9.7 | 0.00 | 0.23 | 0.23 | 100 | 1006.3 |
| 20260508030111 | 2 | 276 | 3.2 | 11.3 | 0.00 | 0.23 | 0.23 | 100 | 1006.3 |
| 20260508024549 | 2 | 279 | 0.0 | 9.7 | 0.00 | 0.23 | 0.23 | 100 | 1006.2 |
| 20260508023047 | 2 | 249 | 1.6 | 9.7 | 0.00 | 0.23 | 0.23 | 100 | 1006.1 |
| 20260508021540 | 2 | 243 | 3.2 | 11.3 | 0.00 | 0.23 | 0.23 | 100 | 1006.1 |
| 20260508020036 | 2 | 278 | 1.6 | 11.3 | 0.00 | 0.23 | 0.23 | 100 | 1006.1 |
| 20260508014534 | 3 | 271 | 4.8 | 11.3 | 0.00 | 0.23 | 0.23 | 100 | 1006.1 |
| 20260508013027 | 3 | 275 | 3.2 | 12.9 | 0.00 | 0.23 | 0.23 | 100 | 1006.2 |
| 20260508011525 | 3 | 282 | 3.2 | 17.7 | 0.00 | 0.23 | 0.23 | 100 | 1006.1 |
| 20260508010035 | 4 | 269 | 6.4 | 16.1 | 0.00 | 0.23 | 0.23 | 100 | 1006.1 |
| 20260508004522 | 4 | 288 | 8.0 | 20.9 | 0.00 | 0.23 | 0.23 | 100 | 1005.8 |
| 20260508003009 | 4 | 246 | 6.4 | 16.1 | 0.00 | 0.23 | 0.23 | 100 | 1005.7 |
| 20260508001505 | 5 | 249 | 6.4 | 17.7 | 0.00 | 0.23 | 0.23 | 100 | 1005.6 |
| 20260508000001 | 5 | 242 | 6.4 | 16.1 | 0.00 | 0.23 | 0.23 | 100 | 1005.4 |
| 20260507234557 | 5 | 244 | 8.0 | 17.7 | 0.00 | 0.25 | 0.23 | 100 | 1005.4 |
| 20260507233054 | 5 | 238 | 6.4 | 17.7 | 0.00 | 0.25 | 0.23 | 100 | 1005.3 |
| 20260507231555 | 6 | 212 | 11.3 | 24.1 | 0.00 | 0.25 | 0.23 | 100 | 1005.2 |
| 20260507230043 | 6 | 257 | 8.0 | 19.3 | 0.00 | 0.25 | 0.23 | 100 | 1005.1 |
| 20260507224554 | 6 | 263 | 6.4 | 16.1 | 0.00 | 0.33 | 0.23 | 100 | 1005.1 |
| 20260507223043 | 6 | 232 | 4.8 | 19.3 | 0.00 | 0.33 | 0.23 | 100 | 1004.8 |
| 20260507221537 | 6 | 221 | 4.8 | 17.7 | 0.00 | 0.33 | 0.23 | 100 | 1004.9 |
| 20260507220031 | 6 | 236 | 8.0 | 20.9 | 0.00 | 0.33 | 0.23 | 100 | 1005.0 |
| 20260507214522 | 6 | 241 | 8.0 | 16.1 | 0.03 | 0.36 | 0.23 | 100 | 1004.9 |
| 20260507213028 | 5 | 245 | 4.8 | 12.9 | 0.03 | 0.36 | 0.23 | 100 | 1004.9 |
| 20260507211513 | 5 | 242 | 3.2 | 9.7 | 0.03 | 0.36 | 0.23 | 100 | 1004.7 |
| 20260507210023 | 6 | 243 | 1.6 | 32.2 | 0.03 | 0.36 | 0.23 | 100 | 1004.7 |
| 20260507204505 | 7 | 235 | 16.1 | 25.7 | 0.00 | 0.33 | 0.20 | 8 | 1004.7 |
| 20260507203109 | 8 | 213 | 11.3 | 22.5 | 0.00 | 0.33 | 0.20 | 5 | 1004.2 |
| 20260507201556 | 7 | 261 | 6.4 | 17.7 | 0.00 | 0.33 | 0.20 | 13 | 1004.0 |
| 20260507200104 | 8 | 300 | 12.9 | 30.6 | 0.00 | 0.33 | 0.20 | 52 | 1004.0 |
| 20260507194546 | 8 | 271 | 8.0 | 17.7 | 0.00 | 0.41 | 0.20 | 56 | 1003.7 |
| 20260507193105 | 10 | 192 | 11.3 | 27.4 | 0.00 | 0.41 | 0.20 | 55 | 1003.8 |
| 20260507191542 | 10 | 242 | 6.4 | 24.1 | 0.00 | 0.41 | 0.20 | 51 | 1003.9 |
| 20260507190038 | 8 | 200 | 6.4 | 19.3 | 0.00 | 0.41 | 0.20 | 46 | 1004.0 |
| 20260507184529 | 8 | 236 | 4.8 | 11.3 | 0.03 | 0.51 | 0.20 | 7 | 1004.2 |
| 20260507183036 | 7 | 210 | 8.0 | 19.3 | 0.03 | 0.51 | 0.20 | 1 | 1004.3 |
| 20260507181520 | 7 | 216 | 3.2 | 11.3 | 0.05 | 0.51 | 0.20 | 100 | 1004.4 |
| 20260507180015 | 6 | 182 | 4.8 | 11.3 | 0.10 | 0.51 | 0.20 | 100 | 1004.6 |
| 20260507174515 | 5 | 196 | 1.6 | 11.3 | 0.10 | 0.71 | 0.18 | 100 | 1004.7 |
| 20260507173016 | 4 | 198 | 3.2 | 17.7 | 0.10 | 0.71 | 0.18 | 100 | 1005.0 |
| 20260507171503 | 5 | 207 | 6.4 | 35.4 | 0.05 | 0.69 | 0.15 | 100 | 1005.1 |
| 20260507170100 | 5 | 246 | 8.0 | 19.3 | 0.05 | 0.64 | 0.10 | 100 | 1004.8 |
| 20260507164604 | 6 | 207 | 4.8 | 20.9 | 0.05 | 0.89 | 0.08 | 100 | 1005.0 |
| 20260507163050 | 6 | 233 | 6.4 | 22.5 | 0.05 | 0.89 | 0.08 | 100 | 1005.0 |
| 20260507161555 | 5 | 235 | 12.9 | 24.1 | 0.05 | 0.89 | 0.08 | 100 | 1004.9 |
| 20260507160059 | 5 | 267 | 11.3 | 20.9 | 0.05 | 0.86 | 0.05 | 100 | 1005.0 |
| 20260507154537 | 5 | 255 | 8.0 | 22.5 | 0.03 | 1.12 | 0.05 | 100 | 1005.2 |
| 20260507153034 | 5 | 249 | 8.0 | 20.9 | 0.03 | 1.12 | 0.05 | 100 | 1005.3 |
| 20260507151529 | 6 | 252 | 6.4 | 16.1 | 0.00 | 1.09 | 0.03 | 100 | 1005.5 |
| 20260507150024 | 6 | 239 | 1.6 | 11.3 | 0.00 | 1.09 | 0.03 | 100 | 1005.5 |
| 20260507144528 | 5 | 253 | 4.8 | 14.5 | 0.00 | 1.40 | 0.03 | 100 | 1005.6 |
| 20260507143015 | 5 | 246 | 0.0 | 6.4 | 0.00 | 1.40 | 0.03 | 100 | 1005.6 |
| 20260507141511 | 5 | 246 | 1.6 | 8.0 | 0.00 | 1.40 | 0.03 | 100 | 1005.5 |
| 20260507140007 | 5 | 246 | 0.0 | 6.4 | 0.00 | 1.40 | 0.03 | 100 | 1005.6 |
| 20260507134502 | 5 | 246 | 1.6 | 8.0 | 0.00 | 1.55 | 0.03 | 100 | 1005.6 |
| 20260507133103 | 5 | 243 | 3.2 | 11.3 | 0.00 | 1.55 | 0.03 | 100 | 1005.6 |
| 20260507131556 | 5 | 239 | 8.0 | 17.7 | 0.00 | 1.55 | 0.03 | 100 | 1005.6 |
| 20260507130048 | 5 | 203 | 1.6 | 16.1 | 0.00 | 1.55 | 0.03 | 100 | 1005.7 |
| 20260507124544 | 5 | 205 | 4.8 | 12.9 | 0.00 | 1.73 | 0.03 | 100 | 1005.7 |
| 20260507123045 | 5 | 214 | 6.4 | 16.1 | 0.00 | 1.73 | 0.03 | 100 | 1005.8 |
| 20260507121538 | 5 | 231 | 3.2 | 11.3 | 0.00 | 1.73 | 0.03 | 100 | 1005.7 |
| 20260507120031 | 5 | 237 | 3.2 | 12.9 | 0.00 | 1.73 | 0.03 | 100 | 1005.8 |
| 20260507114527 | 5 | 233 | 6.4 | 12.9 | 0.00 | 1.75 | 0.03 | 100 | 1005.9 |
| 20260507113027 | 5 | 236 | 3.2 | 12.9 | 0.00 | 1.75 | 0.03 | 100 | 1005.9 |
| 20260507111519 | 5 | 216 | 3.2 | 14.5 | 0.00 | 1.75 | 0.03 | 100 | 1005.8 |
| 20260507110014 | 5 | 221 | 1.6 | 11.3 | 0.00 | 1.75 | 0.03 | 100 | 1005.8 |
| 20260507104511 | 5 | 249 | 1.6 | 6.4 | 0.00 | 1.75 | 0.03 | 100 | 1005.7 |
| 20260507103006 | 4 | 255 | 0.0 | 4.8 | 0.00 | 1.75 | 0.03 | 100 | 1005.5 |
| 20260507101502 | 4 | 255 | 0.0 | 9.7 | 0.00 | 1.75 | 0.03 | 100 | 1005.6 |
| 20260507100057 | 4 | 255 | 1.6 | 8.0 | 0.00 | 1.75 | 0.03 | 100 | 1005.8 |
| 20260507094552 | 4 | 256 | 1.6 | 9.7 | 0.00 | 1.75 | 0.03 | 100 | 1005.8 |
| 20260507093048 | 4 | 258 | 3.2 | 8.0 | 0.00 | 1.75 | 0.03 | 100 | 1005.6 |
| 20260507091544 | 4 | 263 | 3.2 | 11.3 | 0.00 | 1.75 | 0.03 | 100 | 1005.8 |
| 20260507090042 | 4 | 259 | 6.4 | 11.3 | 0.00 | 1.75 | 0.03 | 100 | 1005.8 |
| 20260507084534 | 4 | 254 | 3.2 | 8.0 | 0.00 | 1.75 | 0.03 | 100 | 1005.8 |
| 20260507083031 | 4 | 254 | 1.6 | 6.4 | 0.00 | 1.75 | 0.03 | 100 | 1005.7 |
| 20260507081534 | 4 | 253 | 0.0 | 6.4 | 0.00 | 1.75 | 0.03 | 100 | 1005.8 |
| 20260507080023 | 4 | 253 | 0.0 | 4.8 | 0.00 | 1.75 | 0.03 | 100 | 1005.9 |
| 20260507074520 | 4 | 253 | 1.6 | 8.0 | 0.00 | 1.75 | 0.03 | 100 | 1005.9 |
| 20260507073015 | 4 | 253 | 1.6 | 4.8 | 0.00 | 1.75 | 0.03 | 100 | 1005.9 |
| 20260507071511 | 3 | 253 | 0.0 | 4.8 | 0.00 | 1.75 | 0.03 | 100 | 1005.9 |
| 20260507070010 | 4 | 253 | 0.0 | 4.8 | 0.03 | 1.75 | 0.03 | 100 | 1005.9 |
| 20260507064502 | 4 | 253 | 0.0 | 6.4 | 0.03 | 1.75 | 0.03 | 100 | 1006.0 |
| 20260507063058 | 4 | 253 | 0.0 | 6.4 | 0.03 | 1.75 | 0.03 | 100 | 1006.1 |
| 20260507061554 | 4 | 253 | 0.0 | 8.0 | 0.03 | 1.75 | 0.03 | 100 | 1006.2 |
| 20260507060051 | 4 | 252 | 1.6 | 8.0 | 0.00 | 1.73 | 0.00 | 100 | 1006.5 |
| 20260507054546 | 4 | 252 | 1.6 | 11.3 | 0.00 | 1.73 | 0.00 | 100 | 1006.7 |
| 20260507053041 | 4 | 250 | 3.2 | 9.7 | 0.00 | 1.73 | 0.00 | 100 | 1006.8 |
| 20260507051537 | 4 | 252 | 0.0 | 6.4 | 0.00 | 1.73 | 0.00 | 100 | 1006.9 |
| 20260507050038 | 4 | 250 | 1.6 | 9.7 | 0.00 | 1.73 | 0.00 | 100 | 1007.0 |
| 20260507044528 | 4 | 255 | 1.6 | 8.0 | 0.00 | 1.73 | 0.00 | 100 | 1007.0 |
| 20260507043023 | 4 | 255 | 1.6 | 12.9 | 0.00 | 1.73 | 0.00 | 100 | 1007.0 |
| 20260507041535 | 4 | 268 | 1.6 | 6.4 | 0.00 | 1.73 | 0.00 | 100 | 1007.0 |